Regional Weather Roundup
Issued by NWS Wakefield, VA

Home | Current Version | Previous Version | Graphics & Text | Print | Product List | Glossary On
Versions: 1 2 3 4 5 6 7 8 9 10 11 12 13 14 15 16 17 18 19 20 21 22 23 24 25 26 27 28 29 30 31 32 33 34 35 36 37 38 39 40 41 42 43 44 45 46 47 48 49 50
000
ASUS41 KAKQ 262315
RWRAKQ

REGIONAL WEATHER ROUNDUP
NATIONAL WEATHER SERVICE WAKEFIELD VA
700 PM EDT SUN APR 26 2015

Note: "fair" indicates few or no clouds below 12,000 feet with no
significant weather and/or obstructions to visibility. * = Denotes
station may not report precipitation (e.g., rain,snow,etc.),
thunder or fog.

VAZ042-051-052>054-056-270000-
NORTHERN VIRGINIA

CITY           SKY/WX    TMP DP  RH WIND       PRES   REMARKS
WASH NATIONAL  PTCLDY    65  36  34 N6        29.69R
DULLES         PTCLDY    61  30  31 N8        29.69S
FORT BELVOIR   CLEAR     63  29  27 NW7       29.68S
QUANTICO       PTCLDY    64  30  27 NW5       29.70R
FREDERICKSBRG* CLEAR     63  34  34 NW8       29.69S
STAFFORD*      CLEAR     60  32  34 NW8       29.74R
WARRENTON      SUNNY     62  35  36 N3        29.69S
CULPEPER*      SUNNY     63  30  29 N3        29.70S
MANASSAS*      CLEAR     63  32  31 NW8       29.69S
LEESBURG*      SUNNY     63  34  34 N8        29.70R
WINCHESTER     CLOUDY    63  19  19 NE6       29.68S
FRONT ROYAL*   FAIR      61  32  33 CALM      29.67S
LURAY*         FAIR      59  37  44 CALM      29.69S
$$

VAZ048-049-060>072-079>083-270000-
CENTRAL AND SOUTH CENTRAL VIRGINIA

CITY           SKY/WX    TMP DP  RH WIND       PRES   REMARKS
RICHMOND       MOCLDY    60  37  42 NE5       29.70S
CHESTERFIELD*  FAIR      59  34  38 NW6       29.72R
PETERSBURG*    MOCLDY    59  39  46 E3        29.71F
HANOVER        PTCLDY    61  37  41 CALM      29.71S
TAPPAHANNOCK*  PTCLDY    61  29  29 CALM      29.70S
QUINTON*       FAIR      59  37  44 CALM      29.70S
CHARLOTTSVILLE SUNNY     60  36  40 SW5       29.69S
GORDONSVILLE*  FAIR      60  35  39 NE3       29.69S
ORANGE*        SUNNY     61  36  39 CALM      29.71S
LOUISA*        MOSUNNY   61  36  39 CALM      29.69S
BUMPASS*       FAIR      58  37  45 W5        29.69F
FARMVILLE*     PTSUNNY   60  39  46 CALM      29.70F
CREWE*         FAIR      56  43  60 CALM      29.71S
FORT PICKETT*  FAIR      56  42  58 CALM      29.71S
CHASE CITY*    FAIR      57  46  66 CALM      29.72S
CLARKSVILLE*   MOCLDY    54  41  62 CALM      29.72S
SOUTH HILL*    CLOUDY    54  45  70 CALM      29.77S
LAWRENCEVILLE* FAIR      55  44  64 CALM      29.71S
EMPORIA*       PTCLDY    54  45  71 CALM      29.73S
$$

VAZ088>098-270000-
SOUTHEAST VIRGINIA

CITY           SKY/WX    TMP DP  RH WIND       PRES   REMARKS
NORFOLK        CLEAR     56  37  49 N9        29.71R
VIRGINIA BEACH PTCLDY    58  39  49 N8        29.70R
NORFOLK NAVAL  MOCLDY    58  39  49 NE7       29.72R
WEST POINT*    PTCLDY    62  34  34 CALM      29.71S
SALUDA*        FAIR      58  35  42 CALM      29.69S
NEWPORT NEWS   CLEAR     59  39  47 E6        29.71R
LANGLEY AFB    MOCLDY    55  40  57 E6        29.70R
FORT EUSTIS    CLOUDY    58  36  43 NE5       29.69R
WILLIAMSBURG*  PTCLDY    59  45  58 CALM      29.71R
HR EXEC AP*    FAIR      57  36  44 NE5       29.72S
FRANKLIN*      CLEAR     56  36  47 NE3       29.71R
WAKEFIELD      PTCLDY    58  43  57 CALM      29.71R
$$

VAZ020-022-025-037-045-270000-
WEST CENTRAL AND SOUTHWEST VIRGINIA

CITY           SKY/WX    TMP DP  RH WIND       PRES   REMARKS
STAUNTON*      SUNNY     58  33  39 W3        29.71S
WAYNESBORO*    FAIR      56  35  45 NW5       29.71S
HOT SPRINGS VA CLOUDY    44  44 100 W5        29.69F
LYNCHBURG      PTSUNNY   52  42  69 W3        29.74S
DANVILLE       CLOUDY    53  43  68 N6        29.74S
SOUTH BOSTON*  CLOUDY    54  42  62 NW5       29.73S
MARTINSVILLE   CLOUDY    53  45  74 CALM      29.77R
ROANOKE        PTSUNNY   53  44  71 VRB3      29.75F
BLACKSBURG     PTSUNNY   49  43  80 NW6       29.77S
DUBLIN*        PTSUNNY   51  46  84 NW3       29.77S
MARION*        CLOUDY    48  42  79 NW10      29.79R
HILLSVILLE*    RAIN      46  45  99 N7        29.75R
RICHLANDS*     CLOUDY    45  37  73 N3        29.78S
WISE*          PTSUNNY   52  39  62 NE7       29.79R
ABINGDON*      CLOUDY    52  40  61 NE5       29.78R
$$

MDZ021>025-VAZ099-100-270000-
SOUTHERN MARYLAND AND THE DELMARVA PENINSULA

CITY           SKY/WX    TMP DP  RH WIND       PRES   REMARKS
PATUXENT RIVER CLEAR     58  33  39 NE6       29.69R
BAY BRIDGE APT   N/A    N/A N/A N/A CALM      29.68S
LEONARDTOWN    CLEAR     57  30  35 CALM      29.70S
DOVER          PTCLDY    52  37  56 SE7       29.65S
GEORGETOWN     CLEAR     53  34  48 E9        29.70R
EASTON         PTCLDY    63  34  34 N7        29.71S
CAMBRIDGE      CLEAR     61  30  31 NW6       29.67S
SALISBURY      MOCLDY    54  36  50 SE6       29.69R
OCEAN CITY     CLEAR     50  41  71 E7        29.70R
WALLOPS ISLAND PTCLDY    54  37  52 E6        29.70R
ACCOMACK*      CLEAR    N/A N/A N/A CALM      29.70R
$$

NCZ012>017-030>032-270000-
NORTH CENTRAL AND EASTERN NORTH CAROLINA

CITY           SKY/WX    TMP DP  RH WIND       PRES   REMARKS
ROANOKE RAPIDS FAIR      54  45  71 CALM      29.71F
RALEIGH        CLOUDY    53  45  74 N5        29.73F
ELIZABETH CITY PTCLDY    56  41  57 NE8       29.70S
AHOSKIE*       PTCLDY    52  47  81 CALM      29.72S
EDENTON*       CLOUDY    55  46  69 N3        29.72R
CURRITUCK*     CLOUDY    56  33  42 N8        29.71R
KILL DEVIL HLS CLOUDY    52  35  52 N9        29.68S
MANTEO         PTCLDY    52  35  51 N13       29.70R
CAPE HATTERAS  PTCLDY    50  43  77 NE10G21   29.68R
TARBORO*       FAIR      54  46  74 N3        29.73S
GOLDSBORO      CLOUDY    54  48  82 N6        29.69S
WASHINGTON     CLOUDY    52  47  83 NW5       29.72R
GREENVILLE     CLOUDY    52  46  82 N3        29.75S
NEW BERN       CLOUDY    54  47  77 N8        29.72R
WILMINGTON     CLOUDY    57  50  77 NE13      29.68S
$$

VAZ048-270000-
ELSEWHERE

CITY           SKY/WX    TMP DP  RH WIND       PRES   REMARKS
HARRISBURG PA  PTCLDY    60  26  27 N10       29.69R
BALTIMORE      PTCLDY    61  27  27 N8G22     29.68R
ANNAPOLIS      CLEAR     58  37  45 S5        29.68S
ANDREWS AFB    CLEAR     60  34  38 N6        29.68R
PHILADELPHIA   MOCLDY    61  26  26 N9        29.67S
HENDERSON NC   CLOUDY    53  42  67 CALM      29.72F
GREENSBORO     PTSUNNY   53  43  68 NE7       29.73R
ROCKY MOUNT    PTCLDY    53  45  74 N5        29.73R
$$

VAZ100-270000-
MARINE

STATION/POSITION TIME  TEMP    WIND        PRES    WAVE   SWELL
                       AIR SEA DIR/SP/G            HT/PER HT/PER
                 (UTC) (F)     (DEG/KT/KT) (MB)    (FT/S) (FT/S)
BRANDYWINE LGT   2200   50 51  140/ 13/ 14 1005.3S
CAPE MAY NJ      2200   52 55  100/  9/ 13 1005.0R
LEWES DE         2200   52 54  130/  9/ 13 1005.3R
15NM E FENWICK I 2250   48 48              1005.2R   2/ 8
OCEAN-CITY-INLET 2200   49 51   70/  6/  9 1005.1R
WACHAPREAGUE VA  2200   56 57   40/  5/  7 1005.3R
THOMAS POINT MD  2300   58 54  210/  4/  4 1006.0R
GOOSES REEF MD   2300   57 55                N/A     1/ 2
COVE POINT MD    2200   57      20/  2/  4 1005.8S
SOLOMONS ISLAND  2200      57                N/A
BISHOPS HEAD MD  2200   61 60  310/  5/  8 1004.5R
PINEY POINT MD   2200          220/  4/  5   N/A
CAMBRIDGE MD     2200   60 58  320/  7/  8 1004.6S
LEWISETTA VA     2200   60 57              1005.1R
RAPPAHANNOCK LGT 2200          280/  2/  2 1005.9S
YORK RVR RNG VA  2200   56      80/  8/  9 1005.0S
YORKTOWN VA      2200   59 59   30/ 10/ 12 1005.2R
JAMESTOWN VA     2300   58 63   30/  2/  4 1005.0R
DOMINION TERM VA 2200   58      10/  8/ 12 1005.6R
KIPTOPEKE VA     2200      62  320/  9/ 12   N/A
CHES BAY BRIDGE  2200   54 56  340/  8/  9 1005.2R
CAPE HENRY VA    2200   54     330/  9/ 10 1004.3R
CHESAPEAKE LGHT  2200   51      20/  6/  7 1006.2R
WILLOUBY STN VA  2200   55      40/  9/ 10 1006.2R
S CRANEY ISL VA  2200           40/ 10/ 12 1005.5R
CAPE HENRY BUOY  2228      51                N/A     3/ 6
1ST LANDING BUOY 2210                      1005.3R
OFFSHORE WE BUOY 2211      50                N/A     4/ 6   3/ 6
64NM E OF VA BCH 2250   55 56   20/ 17/ 23 1003.9R   5/ 6   2/ 8
DUCK PIER NC     2200   53 54  360/ 14/ 17 1004.0R
44056 DUCK FRF   2211      54                N/A     5/ 6
OREGON INLET NC  2200   52 55  350/ 14/ 19 1004.7R
HATTERAS NC      2200   54 63  360/ 20/ 23 1004.2R
DIAMOND SHLS NC  2250   56 78  360/ 21/ 27 1004.0R   8/10
CAPE LOOKOUT NC  2300   54     360/ 13/ 17 1005.3R
$$


USA.gov is the U.S. government's official web portal to all federal, state and local government web resources and services.